Temperature
10 9 8 9 9 10 10 10 10 10 11 10 9 10 10 10 10 9 9 9 9 8 8 7 7 7 7 7 7 7 7 7 7 7 7 7 7 7 8 8 8 8 8 9
9 8 9 10 10 10 10 9 9 10 10 10 9 9 10 10 9 9 9 9 8 8 7 7 7 7 6 6 7 7 7 7 7 7 7 7 7 7 7 7 8 8 8 8
8 8 9 9 9 9 9 9 8 8 9 9 8 8 9 10 10 9 9 8 8 7 7 7 6 6 6 6 6 6 6 6 6 6 6 6 7 7 7 7 7 7 7 7
8 9 9 8 8 8 7 9 8 8 7 7 8 7 8 8 8 8 8 8 7 7 7 6 6 6 6 6 6 6 6 6 6 6 6 6 6 6 6 6 6 7 7 7
7 8 7 7 7 7 7 8 8 8 7 6 7 7 7 8 8 7 7 7 7 6 6 6 6 5 5 5 5 5 5 5 5 5 5 5 5 5 6 6 6 6 6 6
7 8 7 7 7 8 7 7 7 7 6 6 7 7 7 7 8 7 7 7 6 6 6 5 5 5 5 5 5 5 5 5 5 5 5 5 5 5 5 5 5 5 5 6
7 7 7 7 6 7 6 6 6 6 6 6 8 7 7 7 7 7 6 6 5 5 5 5 4 4 5 5 5 5 4 4 4 4 4 4 4 4 5 5 5 5 5 5
6 6 6 6 6 5 6 6 5 5 6 7 8 7 7 7 6 6 6 5 5 4 4 4 4 4 4 4 4 4 4 4 4 4 4 4 4 4 4 4 4 4 5 5
5 5 6 6 6 6 6 5 6 5 4 5 7 7 7 6 6 5 5 4 4 4 4 3 4 4 4 4 4 4 4 4 4 3 3 3 3 4 4 4 4 4 4 4
5 4 5 6 6 6 6 5 4 4 5 5 7 7 6 5 5 4 4 4 4 3 3 3 3 3 3 3 3 3 3 3 3 3 3 3 3 3 3 3 3 3 3 3
5 3 4 5 4 4 4 4 4 4 4 5 5 6 6 5 4 4 4 4 3 3 3 3 3 3 3 3 3 3 3 3 3 3 2 2 2 2 2 2 2 3 3 3
4 3 3 4 5 5 4 4 3 3 3 4 4 5 6 5 4 4 4 3 3 3 3 2 2 2 2 2 2 2 2 2 2 2 2 2 2 2 2 2 2 2 2 2
3 2 2 4 3 3 3 3 3 2 3 3 3 4 6 5 4 4 3 3 3 2 2 2 2 2 2 2 2 2 2 2 2 2 1 1 2 1 1 2 2 2 2 2
3 1 2 3 3 2 2 2 2 2 1 2 3 4 4 4 4 3 3 2 2 2 2 1 1 1 1 1 1 1 1 1 1 1 1 1 1 1 1 1 1 1 1 1
2 1 2 2 3 3 2 2 2 1 2 2 3 3 4 4 3 3 3 2 2 2 1 1 1 1 1 1 1 1 1 1 1 1 1 1 1 1 1 1 1 1 1 1
0 1 1 1 2 2 2 2 2 2 2 2 3 3 4 3 3 3 2 2 1 1 1 0 0 0 0 -0 -0 0 0 0 0 0 0 0 0 0 0 0 0 0 0 0
-0 -1 0 1 2 1 1 2 2 2 2 2 2 2 3 2 2 2 1 1 1 0 -0 -0 -1 -1 -1 -1 -0 -0 -0 -0 -0 -0 -0 -0 -0 -0 -0 -0 -0 -0 -0 -1
-1 -1 -0 0 1 1 2 3 2 2 2 2 2 2 2 2 2 1 1 0 -0 -0 -1 -1 -1 -1 -1 -1 -1 -1 -1 -1 -1 -1 -1 -1 -1 -1 -1 -1 -1 -1 -1 -1
-1 -1 -0 -0 0 2 3 2 1 0 0 1 1 1 2 2 1 1 1 -0 -1 -1 -1 -1 -1 -1 -1 -1 -1 -1 -1 -1 -1 -1 -1 -1 -1 -1 -1 -1 -1 -1 -1 -1
-2 -2 -1 -0 0 1 3 1 1 1 0 1 1 0 0 0 -1 -1 -0 -1 -1 -1 -1 -1 -2 -2 -2 -2 -2 -2 -2 -2 -2 -2 -2 -2 -2 -2 -2 -2 -2 -2 -2 -2
-3 -2 -2 -1 -0 1 1 0 1 1 1 1 1 0 -0 -1 -1 -1 -1 -1 -1 -2 -2 -2 -2 -2 -2 -2 -2 -2 -2 -2 -2 -2 -2 -2 -2 -2 -2 -2 -2 -2 -2 -2
-2 -2 -1 -1 -0 1 0 -0 -0 0 1 1 0 0 -0 -1 -1 -1 -2 -2 -2 -2 -2 -2 -2 -2 -3 -3 -3 -3 -3 -3 -3 -3 -3 -2 -2 -2 -2 -2 -2 -2 -2 -2
-1 -0 -0 -0 0 1 1 1 1 1 0 0 -0 -0 -1 -1 -2 -2 -2 -2 -2 -3 -3 -3 -3 -3 -3 -3 -3 -3 -3 -3 -3 -3 -3 -3 -3 -3 -3 -3 -3 -3 -3 -3
-0 -1 -1 -1 -0 1 1 1 1 1 0 -0 -1 -1 -1 -2 -2 -2 -3 -3 -3 -3 -3 -3 -3 -3 -3 -3 -4 -3 -3 -3 -3 -3 -3 -3 -3 -3 -3 -3 -3 -3 -3 -3
0 -2 -2 -2 -1 0 1 1 1 0 -0 -1 -1 -2 -2 -2 -3 -3 -3 -3 -3 -3 -3 -4 -4 -4 -4 -4 -4 -4 -4 -4 -3 -4 -4 -3 -3 -3 -3 -3 -3 -4 -4 -4
-1 -2 -2 -1 -0 -1 0 0 -0 -1 -1 -1 -2 -2 -2 -3 -3 -3 -4 -4 -4 -4 -4 -4 -4 -4 -4 -4 -4 -4 -4 -4 -4 -4 -4 -4 -4 -4 -4 -4 -4 -4 -4 -4
Wind_Speed
2 1 2 4 5 6 7 7 8 7 5 5 9 12 9 5 4 5 5 5 3 2 2 1 2 2 2 2 2 1 1 1 1 1 1 1 2 2 2 2 1 2 2 2
2 3 4 5 5 6 7 7 7 6 4 6 9 12 8 6 6 4 3 3 3 3 2 1 1 1 2 2 2 2 1 1 1 1 1 2 2 2 2 1 1 2 2 2
3 2 3 4 5 6 7 6 6 6 9 7 7 8 5 2 2 1 1 2 2 3 3 2 2 1 2 2 2 2 2 1 1 1 1 1 1 1 1 1 1 2 3 3
2 3 4 3 4 6 6 4 6 7 6 4 3 5 4 3 2 2 1 1 2 3 3 2 2 2 2 2 2 2 2 1 1 1 1 1 2 2 3 2 2 2 2 2
2 2 3 4 5 6 5 6 7 7 6 6 5 5 5 2 2 2 1 1 1 2 2 2 2 2 2 2 1 2 2 1 1 1 2 2 2 2 1 1 1 1 1 2
3 2 2 3 5 5 6 6 6 5 3 5 6 5 4 1 2 1 0 2 3 3 3 3 3 2 2 2 0 1 1 1 1 1 2 1 2 2 2 2 1 1 1 1
2 2 1 2 3 2 4 2 2 2 3 5 3 4 3 1 3 3 2 3 4 5 4 4 3 2 2 2 1 1 1 2 1 1 2 2 2 2 2 2 2 1 1 1
3 2 2 0 1 3 3 2 1 3 4 3 2 4 2 3 4 5 5 4 5 5 5 4 3 2 2 2 2 1 1 1 1 1 1 2 2 2 2 1 2 2 2 2
3 2 1 1 1 3 2 1 2 2 3 4 5 2 2 3 3 4 5 5 6 6 6 5 4 3 2 2 2 2 1 1 1 1 1 2 2 1 1 1 2 2 2 2
2 3 3 1 1 1 3 3 1 1 3 4 5 2 1 1 3 4 5 6 6 6 6 6 5 3 2 2 1 1 1 1 1 1 2 2 2 2 1 1 1 2 2 2
2 2 3 1 2 2 1 1 2 3 3 3 4 2 2 2 1 3 4 5 5 5 6 5 5 4 3 3 2 2 2 2 2 2 2 2 3 2 1 1 2 2 2 2
1 1 3 3 1 1 1 1 1 1 4 3 4 4 2 3 2 3 5 6 6 5 5 5 5 5 4 3 3 3 3 2 2 1 1 2 2 3 2 2 2 1 2 1
0 1 3 2 1 1 1 2 2 2 3 3 4 5 1 4 4 4 5 6 6 5 6 5 5 5 5 4 3 3 3 3 2 2 2 2 2 3 3 3 2 2 2 2
1 2 4 5 3 2 4 4 4 3 3 5 7 8 7 6 6 6 5 6 6 5 5 5 5 5 5 4 3 3 3 3 3 3 3 2 2 2 3 3 2 2 2 2
0 3 5 8 9 8 8 8 7 8 8 7 8 9 9 7 6 5 5 6 6 6 6 5 5 5 5 5 5 3 3 3 3 3 3 3 2 3 3 3 3 3 3 3
0 3 3 6 7 7 10 10 9 10 9 11 12 13 7 6 5 5 5 6 6 7 6 6 6 6 6 5 5 4 3 3 3 3 4 3 3 3 3 3 3 3 3 3
2 2 2 4 4 6 8 8 9 7 7 7 10 9 7 6 6 5 5 5 5 6 7 6 6 5 5 5 4 4 3 3 3 3 3 4 3 3 4 4 4 4 4 3
3 2 2 3 4 6 5 1 3 6 8 7 6 6 5 6 5 4 3 4 5 6 6 6 5 5 5 5 4 4 3 3 3 3 3 4 4 4 4 4 4 3 3 3
3 3 2 2 4 8 4 1 1 3 5 4 5 6 6 5 4 2 3 4 4 5 5 5 4 4 5 4 4 4 4 3 3 4 4 4 4 4 4 4 4 4 3 4
1 2 3 3 4 5 2 2 2 1 4 2 2 4 5 5 4 4 4 5 5 5 5 4 4 4 4 4 4 4 4 3 3 4 4 4 4 3 4 4 4 3 3 3
3 4 6 6 6 6 1 2 3 2 4 2 1 2 3 3 4 3 4 4 4 4 5 4 4 4 4 4 3 3 3 3 3 4 4 4 4 4 3 3 3 3 3 3
7 5 6 5 6 7 3 4 4 4 2 2 2 2 3 3 3 3 3 4 4 4 5 4 4 4 4 4 3 3 4 3 3 4 4 4 4 4 4 3 3 3 3 3
7 6 4 7 7 2 4 4 3 1 2 2 3 3 3 4 4 4 3 4 3 4 4 3 3 4 4 4 3 3 4 4 4 4 4 4 4 4 3 3 3 3 3 2
5 3 3 5 7 5 4 3 3 3 3 3 3 3 3 4 5 4 3 3 3 3 3 2 3 3 4 4 4 3 4 4 3 4 4 4 3 4 3 3 3 2 3 3
4 5 4 7 7 5 5 4 3 3 3 3 3 3 4 4 5 4 3 3 3 3 2 2 2 2 3 3 3 4 3 3 3 3 4 4 4 4 4 4 3 3 3 3
5 6 6 6 4 2 3 2 2 3 4 3 3 4 4 4 5 3 3 2 2 2 2 2 2 2 3 3 3 3 3 3 3 3 4 3 3 3 3 3 4 6 5 7
Wind_Direction
184 225 249 263 255 273 285 281 278 282 289 288 270 273 269 255 252 256 257 262 266 254 266 305 314 317 323 305 307 283 256 267 303 270 245 256 263 276 276 257 230 201 204 198
236 242 278 290 280 279 278 281 284 294 309 298 280 278 268 251 239 244 258 273 277 288 278 301 321 338 311 309 310 292 257 262 268 263 258 252 254 255 255 260 228 212 211 213
242 301 316 301 302 295 285 273 279 295 312 288 282 276 248 228 206 226 241 257 278 286 285 294 307 315 318 313 310 297 277 267 251 254 254 299 289 276 269 262 204 210 222 214
269 295 302 303 306 305 282 306 300 295 299 283 290 286 247 218 223 249 296 317 297 297 298 292 302 322 320 313 310 293 272 264 239 217 233 228 254 264 283 260 234 213 224 222
292 330 315 299 300 300 284 308 289 277 270 275 246 247 269 192 234 247 299 323 331 315 324 318 312 317 328 326 306 287 276 257 225 205 226 236 260 274 296 276 229 218 229 213
265 286 333 319 306 296 302 296 274 256 246 257 228 214 276 211 227 242 284 2 356 352 344 335 328 344 344 346 282 251 280 288 244 224 242 235 265 281 282 272 232 228 243 229
279 211 169 321 318 310 316 318 318 285 230 245 213 211 246 49 41 47 33 14 9 353 338 326 324 333 328 329 312 251 252 272 261 261 269 255 262 251 251 256 240 243 246 248
302 277 156 124 316 299 286 290 236 268 273 291 268 233 194 85 54 41 31 17 360 341 334 325 319 323 331 335 327 309 268 295 297 285 294 274 262 243 246 262 260 247 241 243
318 295 54 113 292 305 306 278 284 278 277 267 246 208 161 65 35 23 11 2 349 343 341 334 333 336 345 344 335 314 280 324 331 8 345 306 287 297 299 274 267 266 254 256
319 290 286 283 235 272 315 316 322 238 278 278 272 245 264 351 337 354 354 344 338 346 346 342 344 340 350 352 345 331 339 347 357 36 14 333 321 310 298 284 282 277 271 255
301 268 276 238 214 233 216 287 278 268 271 276 290 292 29 73 35 355 342 339 340 345 342 344 346 350 355 358 7 6 2 13 21 38 15 355 340 324 313 294 279 275 282 265
312 284 275 257 163 70 217 241 198 236 276 266 274 274 43 53 52 21 347 342 345 349 352 354 351 357 2 2 10 10 2 9 11 24 12 358 339 340 329 319 312 299 289 287
303 223 296 284 168 68 276 279 273 262 279 259 257 268 19 14 7 11 356 342 340 346 355 358 358 3 358 354 0 356 5 12 15 16 359 355 347 349 338 339 338 336 324 318
325 232 225 242 267 280 267 267 244 223 232 259 249 275 300 324 339 349 351 340 339 343 353 355 353 354 354 351 352 1 4 12 10 6 358 358 356 347 339 337 338 336 325 319
229 249 252 267 275 273 263 253 237 230 234 243 269 283 294 311 327 332 335 336 341 344 348 351 350 349 351 356 359 357 359 7 9 5 359 357 4 353 342 342 339 335 333 330
233 258 284 272 261 269 269 253 239 242 246 255 272 280 296 316 327 332 340 337 337 339 346 349 347 348 350 351 348 349 347 358 2 1 353 354 4 356 341 336 341 343 342 337
204 216 263 269 306 308 269 238 219 229 230 235 253 268 309 325 330 325 325 330 335 341 347 346 340 340 340 339 341 342 336 349 360 356 350 352 354 348 338 339 347 346 337 328
193 210 236 285 318 258 248 175 191 230 248 242 259 288 306 312 313 304 319 345 345 344 340 338 341 340 340 342 344 341 344 358 357 353 352 352 350 344 341 344 343 339 331 322
204 204 241 252 270 272 256 203 166 218 269 245 252 282 303 327 321 307 3 5 348 340 336 337 343 340 339 343 347 352 353 0 358 352 348 347 347 342 340 341 339 333 330 328
194 204 221 234 251 259 254 120 107 105 275 289 261 288 312 344 316 298 349 358 350 348 346 344 342 345 346 344 354 356 350 0 351 344 342 340 341 337 332 333 328 326 327 320
176 204 219 231 244 263 236 151 127 186 264 333 353 318 308 274 264 291 327 340 343 340 338 340 343 347 342 344 356 352 348 353 346 348 347 344 345 339 330 333 330 329 331 328
187 193 204 208 231 251 163 146 187 227 294 324 324 316 303 295 303 315 321 323 334 338 336 341 346 344 340 350 1 350 344 349 357 356 354 350 349 342 340 347 343 340 340 336
205 202 203 208 225 237 175 198 215 236 280 299 313 312 310 305 302 306 309 313 322 326 330 339 343 337 343 355 3 353 343 353 355 357 357 354 350 344 342 350 347 343 343 345
220 182 225 259 258 256 238 229 234 239 257 288 296 300 302 294 296 301 306 308 312 323 328 336 339 340 345 351 358 349 345 351 359 358 352 352 356 350 349 346 340 343 346 348
215 176 222 254 265 272 249 231 249 264 267 278 286 283 275 279 287 286 291 295 302 315 320 329 336 337 339 348 355 351 353 356 4 357 352 353 356 353 353 353 351 344 344 343
205 197 207 237 240 235 264 271 291 278 276 274 281 286 282 272 274 279 280 287 304 313 323 336 341 341 339 345 351 353 353 359 4 356 356 355 354 353 354 356 358 4 1 0
Height
1485 1487 1488 1486 1484 1483 1482 1481 1480 1477 1474 1475 1473 1470 1468 1468 1468 1467 1468 1468 1468 1469 1469 1469 1468 1467 1467 1467 1466 1466 1465 1465 1465 1465 1465 1465 1465 1466 1467 1467 1468 1470 1471 1472
1485 1487 1485 1483 1481 1481 1481 1481 1480 1476 1474 1475 1472 1468 1464 1463 1463 1464 1464 1465 1465 1466 1466 1465 1465 1464 1464 1463 1463 1462 1462 1462 1461 1462 1463 1463 1462 1462 1463 1464 1465 1466 1467 1468
1485 1486 1483 1482 1482 1482 1481 1481 1480 1479 1477 1473 1473 1467 1461 1458 1459 1460 1462 1462 1463 1463 1463 1462 1462 1461 1460 1460 1459 1459 1458 1458 1458 1459 1460 1460 1460 1460 1460 1461 1461 1463 1464 1465
1484 1484 1483 1484 1484 1484 1483 1479 1479 1479 1482 1480 1475 1476 1460 1458 1458 1458 1459 1459 1459 1460 1460 1460 1459 1458 1457 1457 1456 1456 1456 1455 1455 1456 1456 1457 1457 1456 1456 1457 1458 1459 1460 1461
1485 1485 1485 1485 1485 1484 1482 1479 1478 1478 1480 1482 1475 1477 1463 1457 1458 1458 1458 1458 1457 1457 1457 1457 1456 1455 1454 1454 1454 1453 1453 1453 1453 1453 1454 1454 1454 1453 1453 1454 1454 1455 1456 1457
1485 1485 1486 1486 1484 1483 1481 1479 1477 1476 1480 1483 1470 1472 1464 1458 1456 1456 1456 1457 1456 1456 1455 1454 1453 1453 1452 1451 1451 1450 1450 1449 1450 1450 1451 1451 1451 1450 1450 1450 1451 1451 1452 1453
1486 1485 1486 1487 1486 1484 1484 1486 1486 1483 1481 1474 1461 1465 1463 1456 1454 1455 1456 1456 1456 1455 1454 1452 1451 1450 1449 1449 1449 1448 1448 1447 1446 1447 1448 1448 1448 1447 1448 1447 1448 1448 1448 1449
1490 1489 1486 1487 1488 1488 1486 1486 1491 1489 1480 1469 1462 1464 1460 1456 1456 1456 1456 1456 1455 1454 1452 1450 1449 1448 1447 1447 1446 1446 1445 1444 1444 1444 1445 1446 1446 1445 1445 1445 1445 1445 1446 1446
1493 1490 1485 1486 1486 1487 1486 1487 1485 1488 1486 1482 1466 1457 1458 1456 1456 1456 1456 1455 1454 1452 1450 1448 1447 1446 1445 1445 1444 1444 1443 1442 1442 1442 1442 1443 1443 1443 1443 1443 1443 1443 1444 1444
1494 1496 1488 1486 1486 1487 1487 1486 1488 1490 1487 1477 1461 1457 1461 1460 1459 1457 1456 1455 1453 1452 1449 1447 1446 1445 1444 1443 1442 1442 1441 1440 1440 1440 1441 1441 1440 1440 1440 1440 1440 1440 1441 1441
1494 1498 1492 1488 1489 1488 1489 1489 1489 1487 1485 1483 1474 1467 1459 1459 1458 1458 1457 1455 1453 1451 1449 1447 1445 1444 1443 1441 1441 1440 1439 1438 1438 1438 1438 1438 1438 1438 1438 1438 1438 1438 1438 1438
1494 1496 1495 1488 1485 1485 1487 1488 1490 1494 1490 1483 1482 1473 1458 1457 1457 1457 1457 1455 1453 1451 1449 1446 1444 1443 1442 1441 1440 1439 1438 1437 1437 1437 1437 1436 1436 1435 1435 1435 1436 1436 1436 1435
1495 1498 1498 1488 1490 1490 1489 1487 1489 1491 1490 1486 1483 1471 1458 1457 1457 1457 1457 1455 1453 1451 1449 1446 1445 1443 1441 1440 1439 1438 1437 1436 1435 1435 1435 1434 1433 1433 1433 1433 1434 1433 1433 1432
1494 1497 1498 1493 1487 1489 1490 1488 1488 1490 1492 1486 1476 1467 1461 1460 1458 1457 1456 1455 1453 1451 1449 1447 1445 1442 1441 1439 1438 1437 1436 1435 1434 1434 1433 1432 1432 1432 1432 1432 1431 1431 1430 1430
1495 1496 1493 1490 1486 1485 1484 1484 1485 1486 1484 1483 1472 1467 1461 1460 1459 1458 1456 1455 1452 1451 1449 1446 1445 1442 1441 1439 1437 1436 1435 1434 1433 1433 1432 1431 1431 1431 1430 1430 1429 1428 1427 1427
1495 1496 1493 1489 1483 1482 1480 1478 1478 1479 1477 1474 1470 1466 1460 1459 1458 1457 1456 1454 1452 1450 1448 1446 1443 1441 1440 1438 1436 1435 1434 1433 1432 1431 1431 1430 1430 1429 1428 1428 1427 1426 1425 1425
1495 1497 1495 1488 1482 1482 1478 1471 1472 1472 1469 1470 1469 1464 1459 1458 1458 1457 1455 1454 1452 1449 1447 1445 1443 1441 1440 1438 1436 1434 1433 1432 1431 1430 1430 1429 1428 1427 1426 1425 1425 1424 1423 1423
1495 1496 1495 1491 1488 1485 1469 1463 1464 1466 1465 1464 1462 1461 1459 1458 1457 1456 1454 1453 1450 1448 1446 1444 1442 1440 1438 1437 1435 1433 1432 1431 1430 1429 1428 1427 1427 1425 1424 1424 1423 1422 1422 1421
1492 1494 1493 1492 1488 1474 1465 1464 1464 1467 1465 1461 1460 1459 1458 1456 1455 1454 1453 1451 1450 1448 1446 1443 1441 1439 1437 1435 1434 1432 1430 1429 1428 1427 1426 1426 1425 1424 1423 1422 1421 1421 1420 1419
1492 1493 1495 1490 1487 1477 1463 1463 1461 1465 1465 1459 1458 1457 1457 1456 1457 1454 1451 1450 1448 1446 1444 1442 1439 1437 1435 1434 1432 1431 1429 1428 1427 1427 1426 1425 1424 1423 1422 1421 1420 1419 1418 1417
1493 1493 1492 1488 1483 1470 1463 1462 1463 1468 1463 1458 1456 1456 1456 1455 1455 1453 1450 1448 1446 1444 1442 1440 1438 1436 1434 1433 1431 1430 1429 1428 1427 1426 1425 1424 1423 1422 1421 1420 1419 1417 1416 1415
1483 1485 1485 1482 1480 1471 1461 1461 1463 1461 1456 1456 1455 1454 1454 1453 1451 1450 1448 1446 1444 1442 1440 1438 1436 1434 1433 1432 1430 1429 1428 1427 1426 1425 1424 1423 1422 1421 1420 1419 1417 1416 1415 1413
1473 1471 1470 1470 1466 1458 1457 1456 1456 1455 1455 1454 1453 1452 1451 1450 1448 1447 1445 1443 1442 1440 1438 1436 1435 1433 1432 1431 1430 1428 1427 1427 1426 1424 1423 1422 1421 1420 1419 1417 1416 1415 1414 1412
1465 1464 1465 1464 1456 1454 1454 1453 1453 1453 1452 1451 1451 1450 1448 1447 1446 1444 1443 1441 1439 1438 1436 1435 1433 1432 1431 1430 1429 1428 1427 1426 1425 1423 1422 1421 1421 1420 1418 1417 1416 1414 1413 1412
1458 1462 1462 1460 1454 1451 1450 1450 1450 1450 1449 1448 1447 1446 1445 1444 1442 1441 1440 1438 1437 1435 1434 1433 1432 1431 1430 1430 1429 1428 1427 1425 1424 1423 1422 1421 1420 1419 1417 1416 1415 1414 1413 1413
1453 1455 1457 1453 1449 1449 1448 1447 1447 1446 1445 1444 1443 1442 1441 1441 1439 1438 1437 1436 1434 1433 1433 1432 1431 1430 1429 1428 1427 1427 1426 1425 1423 1422 1421 1420 1419 1418 1417 1415 1415 1414 1413 1412